| time (UTC) | temp C | wind direction | speed KPH | gust KPH | rain 1hr cm | rain 24hr cm | rain mn cm | humidity % | barometer mb |
| 20260904163721 | 31 | 270 | 6.4 | 16.1 | 0.00 | 0.00 | 0.00 | 68 | 1012.1 |
| 20260904163221 | 31 | 246 | 6.4 | 16.1 | 0.00 | 0.00 | 0.00 | 66 | 1012.0 |
| 20260904162721 | 31 | 225 | 8.0 | 17.7 | 0.00 | 0.00 | 0.00 | 69 | 1012.0 |
| 20260904162220 | 30 | 232 | 8.0 | 17.7 | 0.00 | 0.00 | 0.00 | 67 | 1011.9 |
| 20260904161722 | 30 | 227 | 6.4 | 14.5 | 0.00 | 0.00 | 0.00 | 67 | 1011.9 |
| 20260904161221 | 30 | 232 | 6.4 | 17.7 | 0.00 | 0.00 | 0.00 | 66 | 1012.1 |
| 20260904160721 | 31 | 229 | 9.7 | 17.7 | 0.00 | 0.00 | 0.00 | 62 | 1012.1 |
| 20260904160220 | 31 | 265 | 6.4 | 16.1 | 0.00 | 0.00 | 0.00 | 69 | 1012.1 |
| 20260904155219 | 30 | 265 | 8.0 | 19.3 | 0.00 | 0.00 | 0.00 | 68 | 1012.1 |
| 20260904154720 | 30 | 232 | 11.3 | 20.9 | 0.00 | 0.00 | 0.00 | 66 | 1012.0 |
| 20260904154220 | 30 | 254 | 8.0 | 20.9 | 0.00 | 0.00 | 0.00 | 67 | 1012.0 |
| 20260904153720 | 30 | 261 | 8.0 | 19.3 | 0.00 | 0.00 | 0.00 | 69 | 1012.0 |
| 20260904153219 | 30 | 267 | 11.3 | 22.5 | 0.00 | 0.00 | 0.00 | 69 | 1012.1 |
| 20260904152219 | 30 | 205 | 9.7 | 22.5 | 0.00 | 0.00 | 0.00 | 67 | 1012.0 |
| 20260904151720 | 29 | 230 | 8.0 | 24.1 | 0.00 | 0.00 | 0.00 | 69 | 1012.1 |
| 20260904151220 | 30 | 221 | 9.7 | 24.1 | 0.00 | 0.00 | 0.00 | 67 | 1012.0 |
| 20260904150719 | 29 | 265 | 8.0 | 17.7 | 0.00 | 0.00 | 0.00 | 69 | 1012.1 |
| 20260904150219 | 29 | 215 | 8.0 | 16.1 | 0.00 | 0.00 | 0.00 | 69 | 1012.0 |
| 20260904144719 | 28 | 211 | 9.7 | 19.3 | 0.00 | 0.00 | 0.00 | 69 | 1012.0 |
| 20260904144218 | 28 | 230 | 6.4 | 19.3 | 0.00 | 0.00 | 0.00 | 73 | 1012.0 |
| 20260904143718 | 28 | 219 | 8.0 | 16.1 | 0.00 | 0.00 | 0.00 | 70 | 1012.0 |
| 20260904143218 | 28 | 257 | 6.4 | 14.5 | 0.00 | 0.00 | 0.00 | 71 | 1012.0 |
| 20260904142718 | 28 | 221 | 9.7 | 14.5 | 0.00 | 0.00 | 0.00 | 70 | 1011.9 |
| 20260904141719 | 28 | 184 | 6.4 | 12.9 | 0.00 | 0.00 | 0.00 | 71 | 1012.0 |
| 20260904141217 | 28 | 232 | 4.8 | 12.9 | 0.00 | 0.00 | 0.00 | 72 | 1012.1 |
| 20260904140717 | 28 | 213 | 4.8 | 12.9 | 0.00 | 0.03 | 0.00 | 73 | 1012.1 |
| 20260904140218 | 27 | 202 | 6.4 | 11.3 | 0.00 | 0.03 | 0.00 | 72 | 1012.1 |
| 20260904134717 | 27 | 234 | 6.4 | 12.9 | 0.00 | 0.03 | 0.00 | 74 | 1011.9 |
| 20260904133215 | 27 | 221 | 6.4 | 9.7 | 0.00 | 0.03 | 0.00 | 75 | 1011.8 |
| 20260904132714 | 26 | 178 | 3.2 | 8.0 | 0.00 | 0.03 | 0.00 | 76 | 1011.7 |
| 20260904132214 | 26 | 186 | 3.2 | 8.0 | 0.00 | 0.03 | 0.00 | 76 | 1011.6 |
| 20260904131715 | 26 | 144 | 3.2 | 9.7 | 0.00 | 0.03 | 0.00 | 77 | 1011.6 |
| 20260904131213 | 26 | 196 | 4.8 | 9.7 | 0.00 | 0.03 | 0.00 | 77 | 1011.5 |
| 20260904130713 | 26 | 187 | 3.2 | 8.0 | 0.00 | 0.03 | 0.00 | 78 | 1011.4 |
| 20260904130214 | 26 | 162 | 3.2 | 6.4 | 0.00 | 0.03 | 0.00 | 79 | 1011.4 |
| 20260904125713 | 25 | 153 | 3.2 | 6.4 | 0.00 | 0.03 | 0.00 | 79 | 1011.3 |
| 20260904125213 | 25 | 141 | 3.2 | 6.4 | 0.00 | 0.03 | 0.00 | 79 | 1011.3 |
| 20260904123713 | 25 | 146 | 1.6 | 6.4 | 0.00 | 0.10 | 0.00 | 79 | 1011.2 |
| 20260904122712 | 25 | 196 | 3.2 | 8.0 | 0.00 | 0.15 | 0.00 | 79 | 1011.1 |
| 20260904122212 | 25 | 144 | 1.6 | 9.7 | 0.00 | 0.18 | 0.00 | 79 | 1011.1 |
| 20260904121212 | 25 | 162 | 4.8 | 8.0 | 0.00 | 0.18 | 0.00 | 79 | 1011.0 |
| 20260904120713 | 25 | 178 | 3.2 | 9.7 | 0.00 | 0.18 | 0.00 | 79 | 1011.0 |
| 20260904120213 | 25 | 185 | 3.2 | 9.7 | 0.00 | 0.18 | 0.00 | 79 | 1011.0 |
| 20260904115712 | 25 | 153 | 3.2 | 9.7 | 0.00 | 0.18 | 0.00 | 79 | 1010.9 |
| 20260904115212 | 25 | 205 | 3.2 | 9.7 | 0.00 | 0.18 | 0.00 | 78 | 1011.0 |
| 20260904114712 | 25 | 123 | 4.8 | 9.7 | 0.00 | 0.18 | 0.00 | 78 | 1010.9 |
| 20260904113712 | 25 | 178 | 3.2 | 8.0 | 0.00 | 0.18 | 0.00 | 77 | 1010.9 |
| 20260904113212 | 25 | 178 | 4.8 | 8.0 | 0.00 | 0.18 | 0.00 | 77 | 1010.9 |
| 20260904112712 | 25 | 137 | 3.2 | 8.0 | 0.00 | 0.18 | 0.00 | 77 | 1010.9 |
| 20260904112212 | 25 | 168 | 3.2 | 9.7 | 0.00 | 0.18 | 0.00 | 76 | 1011.0 |
| 20260904111713 | 25 | 190 | 3.2 | 9.7 | 0.00 | 0.18 | 0.00 | 76 | 1010.9 |
| 20260904111212 | 25 | 119 | 3.2 | 8.0 | 0.00 | 0.18 | 0.00 | 76 | 1011.0 |
| 20260904110711 | 25 | 202 | 3.2 | 8.0 | 0.00 | 0.18 | 0.00 | 76 | 1011.0 |
| 20260904110211 | 26 | 173 | 3.2 | 9.7 | 0.00 | 0.18 | 0.00 | 75 | 1010.9 |
| 20260904105211 | 26 | 178 | 3.2 | 12.9 | 0.00 | 0.18 | 0.00 | 74 | 1010.9 |
| 20260904104711 | 26 | 141 | 3.2 | 12.9 | 0.00 | 0.18 | 0.00 | 74 | 1010.8 |
| 20260904104210 | 26 | 196 | 6.4 | 12.9 | 0.00 | 0.18 | 0.00 | 74 | 1010.8 |
| 20260904103710 | 26 | 163 | 4.8 | 11.3 | 0.00 | 0.18 | 0.00 | 74 | 1010.8 |
| 20260904101709 | 26 | 178 | 4.8 | 9.7 | 0.00 | 0.18 | 0.00 | 72 | 1010.8 |
| 20260904101210 | 26 | 190 | 4.8 | 16.1 | 0.00 | 0.18 | 0.00 | 71 | 1010.9 |
| 20260904100710 | 26 | 178 | 8.0 | 16.1 | 0.00 | 0.18 | 0.00 | 71 | 1010.9 |
| 20260904100209 | 26 | 147 | 8.0 | 14.5 | 0.00 | 0.18 | 0.00 | 71 | 1010.8 |
| 20260904095709 | 27 | 166 | 6.4 | 14.5 | 0.00 | 0.18 | 0.00 | 71 | 1010.8 |
| 20260904095209 | 27 | 187 | 6.4 | 16.1 | 0.00 | 0.18 | 0.00 | 71 | 1010.8 |
| 20260904093709 | 27 | 201 | 11.3 | 24.1 | 0.00 | 0.18 | 0.00 | 71 | 1010.6 |
| 20260904093208 | 27 | 171 | 4.8 | 17.7 | 0.00 | 0.18 | 0.00 | 71 | 1010.6 |
| 20260904092708 | 27 | 192 | 8.0 | 20.9 | 0.00 | 0.18 | 0.00 | 69 | 1010.6 |
| 20260904092210 | 27 | 198 | 8.0 | 24.1 | 0.00 | 0.18 | 0.00 | 69 | 1010.5 |
| 20260904091708 | 27 | 209 | 9.7 | 24.1 | 0.00 | 0.18 | 0.00 | 68 | 1010.4 |
| 20260904091209 | 28 | 165 | 8.0 | 22.5 | 0.00 | 0.18 | 0.00 | 68 | 1010.5 |
| 20260904090709 | 28 | 85 | 9.7 | 22.5 | 0.00 | 0.18 | 0.00 | 68 | 1010.4 |
| 20260904090208 | 27 | 226 | 9.7 | 22.5 | 0.00 | 0.18 | 0.00 | 69 | 1010.3 |
| 20260904085708 | 27 | 207 | 12.9 | 22.5 | 0.00 | 0.18 | 0.00 | 70 | 1010.3 |
| 20260904085208 | 27 | 215 | 9.7 | 20.9 | 0.00 | 0.18 | 0.00 | 70 | 1010.2 |
| 20260904084708 | 27 | 198 | 9.7 | 17.7 | 0.00 | 0.18 | 0.00 | 70 | 1010.2 |
| 20260904084208 | 27 | 135 | 9.7 | 20.9 | 0.00 | 0.18 | 0.00 | 69 | 1010.3 |
| 20260904083707 | 27 | 196 | 8.0 | 24.1 | 0.00 | 0.18 | 0.00 | 69 | 1010.3 |
| 20260904083209 | 27 | 221 | 11.3 | 24.1 | 0.00 | 0.18 | 0.00 | 69 | 1010.2 |
| 20260904082707 | 27 | 211 | 11.3 | 20.9 | 0.00 | 0.18 | 0.00 | 68 | 1010.2 |
| 20260904082210 | 27 | 131 | 9.7 | 25.7 | 0.00 | 0.18 | 0.00 | 68 | 1010.2 |
| 20260904081708 | 27 | 178 | 9.7 | 25.7 | 0.00 | 0.18 | 0.00 | 68 | 1010.0 |
| 20260904081208 | 27 | 173 | 9.7 | 24.1 | 0.00 | 0.18 | 0.00 | 69 | 1010.0 |
| 20260904080707 | 27 | 198 | 11.3 | 24.1 | 0.00 | 0.18 | 0.00 | 69 | 1010.0 |
| 20260904080207 | 27 | 196 | 12.9 | 25.7 | 0.00 | 0.18 | 0.00 | 69 | 1010.0 |
| 20260904075707 | 27 | 193 | 12.9 | 25.7 | 0.00 | 0.18 | 0.00 | 68 | 1010.2 |
| 20260904075207 | 27 | 198 | 14.5 | 25.7 | 0.00 | 0.18 | 0.00 | 67 | 1010.2 |
| 20260904074707 | 27 | 169 | 12.9 | 27.4 | 0.00 | 0.18 | 0.00 | 66 | 1010.2 |
| 20260904074207 | 28 | 141 | 12.9 | 27.4 | 0.00 | 0.18 | 0.00 | 65 | 1010.3 |
| 20260904073707 | 28 | 218 | 9.7 | 20.9 | 0.00 | 0.18 | 0.00 | 64 | 1010.3 |
| 20260904073206 | 28 | 238 | 11.3 | 19.3 | 0.00 | 0.18 | 0.00 | 65 | 1010.3 |
| 20260904072706 | 28 | 221 | 8.0 | 19.3 | 0.00 | 0.18 | 0.00 | 64 | 1010.0 |
| 20260904072208 | 28 | 193 | 9.7 | 20.9 | 0.00 | 0.18 | 0.00 | 64 | 1010.2 |
| 20260904071706 | 28 | 205 | 6.4 | 20.9 | 0.00 | 0.18 | 0.00 | 64 | 1010.2 |
| 20260904071206 | 28 | 231 | 9.7 | 22.5 | 0.00 | 0.18 | 0.00 | 64 | 1010.3 |
| 20260904070206 | 28 | 147 | 9.7 | 17.7 | 0.00 | 0.18 | 0.00 | 63 | 1010.2 |
| 20260904065706 | 28 | 221 | 8.0 | 24.1 | 0.00 | 0.18 | 0.00 | 63 | 1010.2 |
| 20260904065206 | 28 | 226 | 6.4 | 24.1 | 0.00 | 0.18 | 0.00 | 63 | 1010.3 |
| 20260904064706 | 28 | 189 | 6.4 | 17.7 | 0.00 | 0.18 | 0.00 | 63 | 1010.3 |
| 20260904064205 | 28 | 196 | 8.0 | 20.9 | 0.00 | 0.18 | 0.00 | 63 | 1010.3 |
| 20260904063705 | 28 | 147 | 8.0 | 20.9 | 0.00 | 0.18 | 0.00 | 63 | 1010.3 |
| 20260904063205 | 28 | 146 | 6.4 | 19.3 | 0.00 | 0.18 | 0.00 | 63 | 1010.2 |
| 20260904062705 | 28 | 202 | 6.4 | 19.3 | 0.00 | 0.18 | 0.00 | 63 | 1010.3 |
| 20260904062206 | 28 | 61 | 8.0 | 16.1 | 0.00 | 0.18 | 0.00 | 63 | 1010.3 |
| 20260904061705 | 28 | 178 | 8.0 | 14.5 | 0.00 | 0.18 | 0.00 | 63 | 1010.2 |
| 20260904061205 | 28 | 147 | 8.0 | 20.9 | 0.00 | 0.18 | 0.00 | 62 | 1010.0 |
| 20260904060705 | 28 | 137 | 9.7 | 20.9 | 0.00 | 0.18 | 0.00 | 62 | 1010.0 |
| 20260904060204 | 28 | 168 | 9.7 | 19.3 | 0.00 | 0.18 | 0.00 | 62 | 1010.2 |
| 20260904055704 | 28 | 218 | 9.7 | 20.9 | 0.00 | 0.18 | 0.00 | 62 | 1010.2 |
| 20260904055204 | 28 | 165 | 11.3 | 20.9 | 0.00 | 0.18 | 0.00 | 62 | 1010.2 |
| 20260904054204 | 28 | 163 | 11.3 | 19.3 | 0.00 | 0.18 | 0.00 | 62 | 1010.0 |
| 20260904053704 | 28 | 173 | 8.0 | 16.1 | 0.00 | 0.18 | 0.00 | 62 | 1010.0 |
| 20260904052703 | 28 | 211 | 8.0 | 20.9 | 0.00 | 0.18 | 0.00 | 62 | 1009.9 |
| 20260904052204 | 28 | 175 | 6.4 | 20.9 | 0.00 | 0.18 | 0.00 | 63 | 1009.8 |
| 20260904051203 | 28 | 135 | 6.4 | 19.3 | 0.00 | 0.18 | 0.00 | 63 | 1009.8 |
| 20260904050700 | 28 | 178 | 6.4 | 25.7 | 0.00 | 0.18 | 0.00 | 63 | 1009.8 |
| 20260904050200 | 28 | 178 | 9.7 | 25.7 | 0.00 | 0.18 | 0.00 | 62 | 1009.8 |
| 20260904045701 | 28 | 183 | 6.4 | 20.9 | 0.00 | 0.18 | 0.18 | 62 | 1009.8 |
| 20260904044700 | 28 | 182 | 8.0 | 14.5 | 0.00 | 0.18 | 0.18 | 62 | 1009.7 |
| 20260904043700 | 29 | 123 | 9.7 | 17.7 | 0.00 | 0.18 | 0.18 | 63 | 1009.7 |
| 20260904043200 | 29 | 225 | 8.0 | 19.3 | 0.00 | 0.18 | 0.18 | 62 | 1009.7 |
| 20260904042200 | 29 | 170 | 8.0 | 19.3 | 0.00 | 0.18 | 0.18 | 62 | 1009.7 |
| 20260904041700 | 29 | 128 | 6.4 | 19.3 | 0.00 | 0.18 | 0.18 | 62 | 1009.7 |
| 20260904040659 | 29 | 132 | 8.0 | 16.1 | 0.00 | 0.18 | 0.18 | 62 | 1009.8 |
| 20260904040159 | 29 | 153 | 8.0 | 20.9 | 0.00 | 0.18 | 0.18 | 62 | 1009.8 |
| 20260904034659 | 29 | 185 | 6.4 | 22.5 | 0.00 | 0.18 | 0.18 | 62 | 1009.8 |
| 20260904033157 | 30 | 221 | 8.0 | 16.1 | 0.00 | 0.18 | 0.18 | 62 | 1009.8 |
| 20260904032657 | 30 | 153 | 8.0 | 17.7 | 0.00 | 0.18 | 0.18 | 62 | 1009.7 |
| 20260904031155 | 30 | 144 | 8.0 | 17.7 | 0.00 | 0.18 | 0.18 | 61 | 1009.7 |
| 20260904030156 | 30 | 158 | 9.7 | 20.9 | 0.00 | 0.18 | 0.18 | 61 | 1009.6 |
| 20260904025655 | 30 | 173 | 6.4 | 19.3 | 0.00 | 0.18 | 0.18 | 62 | 1009.6 |
| 20260904024655 | 30 | 123 | 6.4 | 14.5 | 0.00 | 0.18 | 0.18 | 62 | 1009.6 |
| 20260904024153 | 30 | 178 | 6.4 | 16.1 | 0.00 | 0.18 | 0.18 | 62 | 1009.6 |
| 20260904023153 | 30 | 147 | 6.4 | 19.3 | 0.00 | 0.18 | 0.18 | 61 | 1009.5 |
| 20260904022653 | 30 | 178 | 6.4 | 19.3 | 0.00 | 0.18 | 0.18 | 61 | 1009.5 |
| 20260904022155 | 30 | 187 | 8.0 | 17.7 | 0.00 | 0.18 | 0.18 | 61 | 1009.5 |
| 20260904021653 | 30 | 124 | 8.0 | 16.1 | 0.00 | 0.18 | 0.18 | 61 | 1009.5 |
| 20260904021153 | 30 | 141 | 8.0 | 16.1 | 0.00 | 0.18 | 0.18 | 61 | 1009.4 |
| 20260904020653 | 30 | 177 | 6.4 | 16.1 | 0.00 | 0.18 | 0.18 | 61 | 1009.3 |
| 20260904015653 | 31 | 177 | 4.8 | 16.1 | 0.00 | 0.18 | 0.18 | 60 | 1009.4 |
| 20260904014652 | 31 | 148 | 4.8 | 17.7 | 0.00 | 0.18 | 0.18 | 59 | 1009.3 |
| 20260904014152 | 31 | 188 | 6.4 | 17.7 | 0.00 | 0.18 | 0.18 | 59 | 1009.1 |
| 20260904013651 | 31 | 142 | 6.4 | 14.5 | 0.00 | 0.18 | 0.18 | 59 | 1009.1 |
| 20260904013152 | 31 | 165 | 6.4 | 16.1 | 0.00 | 0.18 | 0.18 | 59 | 1009.0 |
| 20260904012152 | 31 | 178 | 4.8 | 19.3 | 0.00 | 0.18 | 0.18 | 58 | 1009.0 |
| 20260904011651 | 31 | 153 | 4.8 | 19.3 | 0.00 | 0.18 | 0.18 | 58 | 1008.9 |
| 20260904011151 | 31 | 144 | 6.4 | 22.5 | 0.00 | 0.18 | 0.18 | 58 | 1008.8 |
| 20260904010650 | 32 | 131 | 8.0 | 22.5 | 0.00 | 0.18 | 0.18 | 58 | 1008.7 |
| 20260904010150 | 32 | 128 | 6.4 | 19.3 | 0.00 | 0.18 | 0.18 | 58 | 1008.7 |
| 20260904005650 | 32 | 178 | 9.7 | 17.7 | 0.00 | 0.18 | 0.18 | 58 | 1008.7 |
| 20260904005151 | 32 | 146 | 8.0 | 17.7 | 0.00 | 0.18 | 0.18 | 58 | 1008.7 |
| 20260904004150 | 32 | 140 | 4.8 | 14.5 | 0.00 | 0.18 | 0.18 | 57 | 1008.5 |
| 20260904003650 | 32 | 210 | 4.8 | 19.3 | 0.00 | 0.18 | 0.18 | 56 | 1008.4 |
| 20260904003149 | 32 | 138 | 6.4 | 19.3 | 0.00 | 0.18 | 0.18 | 56 | 1008.4 |
| 20260904002650 | 33 | 212 | 6.4 | 16.1 | 0.00 | 0.18 | 0.18 | 55 | 1008.4 |
| 20260904001649 | 33 | 175 | 9.7 | 19.3 | 0.00 | 0.18 | 0.18 | 54 | 1008.4 |
| 20260904001149 | 33 | 166 | 8.0 | 19.3 | 0.00 | 0.18 | 0.18 | 54 | 1008.3 |
| 20260904000650 | 33 | 138 | 8.0 | 19.3 | 0.00 | 0.18 | 0.18 | 54 | 1008.4 |
| 20260903235649 | 33 | 162 | 11.3 | 25.7 | 0.00 | 0.18 | 0.18 | 53 | 1008.3 |
| 20260903235149 | 33 | 187 | 6.4 | 19.3 | 0.00 | 0.18 | 0.18 | 53 | 1008.3 |
| 20260903234648 | 33 | 165 | 11.3 | 25.7 | 0.00 | 0.18 | 0.18 | 52 | 1008.3 |
| 20260903234148 | 33 | 178 | 12.9 | 25.7 | 0.00 | 0.18 | 0.18 | 52 | 1008.3 |
| 20260903233148 | 34 | 163 | 11.3 | 20.9 | 0.00 | 0.18 | 0.18 | 52 | 1008.2 |
| 20260903232648 | 34 | 171 | 6.4 | 16.1 | 0.00 | 0.18 | 0.18 | 53 | 1008.3 |
| 20260903232149 | 34 | 182 | 8.0 | 19.3 | 0.00 | 0.18 | 0.18 | 52 | 1008.2 |
| 20260903231643 | 34 | 177 | 11.3 | 24.1 | 0.00 | 0.18 | 0.18 | 51 | 1008.1 |
| 20260903231144 | 34 | 166 | 16.1 | 25.7 | 0.00 | 0.18 | 0.18 | 51 | 1008.1 |
| 20260903230643 | 34 | 144 | 12.9 | 25.7 | 0.00 | 0.18 | 0.18 | 51 | 1008.2 |
| 20260903230143 | 34 | 186 | 12.9 | 27.4 | 0.00 | 0.18 | 0.18 | 51 | 1008.2 |
| 20260903225142 | 35 | 171 | 9.7 | 19.3 | 0.00 | 0.18 | 0.18 | 52 | 1008.1 |
| 20260903224642 | 35 | 226 | 8.0 | 17.7 | 0.00 | 0.18 | 0.18 | 52 | 1008.1 |
| 20260903224141 | 35 | 171 | 8.0 | 17.7 | 0.00 | 0.18 | 0.18 | 53 | 1008.1 |
| 20260903223641 | 35 | 201 | 8.0 | 22.5 | 0.00 | 0.18 | 0.18 | 53 | 1008.1 |
| 20260903222641 | 35 | 178 | 9.7 | 19.3 | 0.00 | 0.18 | 0.18 | 53 | 1008.1 |
| 20260903222142 | 35 | 173 | 8.0 | 20.9 | 0.00 | 0.18 | 0.18 | 53 | 1008.1 |
| 20260903221641 | 35 | 208 | 14.5 | 20.9 | 0.00 | 0.18 | 0.18 | 52 | 1008.1 |
| 20260903221140 | 35 | 200 | 11.3 | 29.0 | 0.00 | 0.18 | 0.18 | 53 | 1008.1 |
| 20260903220640 | 35 | 161 | 8.0 | 29.0 | 0.00 | 0.18 | 0.18 | 52 | 1008.2 |
| 20260903215639 | 35 | 182 | 11.3 | 27.4 | 0.00 | 0.18 | 0.18 | 52 | 1008.1 |
| 20260903215139 | 35 | 160 | 16.1 | 27.4 | 0.00 | 0.18 | 0.18 | 51 | 1008.3 |
| 20260903214638 | 35 | 155 | 11.3 | 24.1 | 0.00 | 0.18 | 0.18 | 52 | 1008.0 |
| 20260903214139 | 35 | 203 | 9.7 | 19.3 | 0.00 | 0.18 | 0.18 | 52 | 1008.1 |
| 20260903213638 | 35 | 207 | 9.7 | 19.3 | 0.00 | 0.18 | 0.18 | 51 | 1008.1 |
| 20260903212637 | 35 | 128 | 12.9 | 25.7 | 0.00 | 0.18 | 0.18 | 51 | 1008.1 |
| 20260903212138 | 35 | 202 | 14.5 | 30.6 | 0.00 | 0.18 | 0.18 | 50 | 1008.1 |
| 20260903211636 | 35 | 209 | 11.3 | 30.6 | 0.00 | 0.18 | 0.18 | 49 | 1008.1 |
| 20260903211136 | 35 | 126 | 17.7 | 30.6 | 0.00 | 0.18 | 0.18 | 49 | 1008.1 |
| 20260903210136 | 35 | 187 | 12.9 | 27.4 | 0.00 | 0.18 | 0.18 | 50 | 1008.2 |
| 20260903205636 | 35 | 229 | 9.7 | 25.7 | 0.00 | 0.18 | 0.18 | 51 | 1008.3 |
| 20260903205135 | 35 | 155 | 11.3 | 25.7 | 0.00 | 0.18 | 0.18 | 51 | 1008.1 |
| 20260903204636 | 35 | 193 | 12.9 | 24.1 | 0.00 | 0.18 | 0.18 | 50 | 1008.3 |
| 20260903204136 | 35 | 167 | 12.9 | 24.1 | 0.00 | 0.18 | 0.18 | 51 | 1008.3 |
| 20260903203634 | 35 | 183 | 12.9 | 20.9 | 0.00 | 0.18 | 0.18 | 52 | 1008.4 |
| 20260903203135 | 35 | 75 | 12.9 | 20.9 | 0.00 | 0.18 | 0.18 | 51 | 1008.4 |
| 20260903202634 | 35 | 185 | 8.0 | 25.7 | 0.00 | 0.18 | 0.18 | 51 | 1008.4 |
| 20260903202136 | 35 | 162 | 12.9 | 25.7 | 0.00 | 0.18 | 0.18 | 51 | 1008.6 |
| 20260903201634 | 35 | 198 | 14.5 | 25.7 | 0.00 | 0.18 | 0.18 | 50 | 1008.6 |
| 20260903201134 | 35 | 193 | 9.7 | 22.5 | 0.00 | 0.18 | 0.18 | 52 | 1008.7 |
| 20260903200634 | 34 | 182 | 11.3 | 22.5 | 0.00 | 0.18 | 0.18 | 53 | 1008.7 |
| 20260903200133 | 34 | 205 | 11.3 | 29.0 | 0.00 | 0.18 | 0.18 | 55 | 1008.7 |
| 20260903195633 | 34 | 198 | 8.0 | 29.0 | 0.00 | 0.18 | 0.18 | 55 | 1008.8 |
| 20260903195134 | 34 | 223 | 11.3 | 30.6 | 0.00 | 0.18 | 0.18 | 56 | 1008.8 |
| 20260903194633 | 34 | 190 | 16.1 | 30.6 | 0.00 | 0.18 | 0.18 | 55 | 1008.8 |
| 20260903194133 | 33 | 140 | 11.3 | 20.9 | 0.00 | 0.18 | 0.18 | 56 | 1009.0 |
| 20260903193633 | 33 | 207 | 8.0 | 22.5 | 0.00 | 0.18 | 0.18 | 57 | 1009.0 |
| 20260903193132 | 33 | 195 | 9.7 | 22.5 | 0.00 | 0.18 | 0.18 | 57 | 1009.1 |
| 20260903192632 | 33 | 156 | 8.0 | 22.5 | 0.00 | 0.18 | 0.18 | 57 | 1009.1 |
| 20260903192134 | 33 | 162 | 9.7 | 24.1 | 0.00 | 0.18 | 0.18 | 58 | 1009.0 |
| 20260903191632 | 33 | 178 | 11.3 | 24.1 | 0.00 | 0.18 | 0.18 | 57 | 1009.0 |
| 20260903190632 | 33 | 153 | 11.3 | 25.7 | 0.00 | 0.18 | 0.18 | 58 | 1009.1 |
| 20260903190131 | 33 | 169 | 12.9 | 24.1 | 0.00 | 0.18 | 0.18 | 58 | 1009.3 |
| 20260903185631 | 33 | 154 | 8.0 | 20.9 | 0.00 | 0.18 | 0.18 | 58 | 1009.4 |
| 20260903184630 | 32 | 147 | 9.7 | 22.5 | 0.00 | 0.18 | 0.18 | 58 | 1009.4 |
| 20260903184130 | 32 | 189 | 11.3 | 25.7 | 0.00 | 0.18 | 0.18 | 58 | 1009.7 |
| 20260903183630 | 32 | 162 | 11.3 | 25.7 | 0.00 | 0.18 | 0.18 | 59 | 1009.7 |
| 20260903183130 | 32 | 151 | 9.7 | 20.9 | 0.00 | 0.18 | 0.18 | 58 | 1009.7 |
| 20260903182630 | 32 | 195 | 9.7 | 19.3 | 0.00 | 0.18 | 0.18 | 60 | 1009.8 |
| 20260903182132 | 32 | 187 | 8.0 | 19.3 | 0.00 | 0.18 | 0.18 | 60 | 1009.8 |
| 20260903181630 | 32 | 195 | 11.3 | 19.3 | 0.00 | 0.18 | 0.18 | 58 | 1010.0 |
| 20260903181129 | 32 | 126 | 11.3 | 20.9 | 0.00 | 0.18 | 0.18 | 57 | 1009.9 |
| 20260903180129 | 32 | 196 | 9.7 | 22.5 | 0.00 | 0.18 | 0.18 | 59 | 1010.3 |
| 20260903175628 | 32 | 217 | 8.0 | 27.4 | 0.00 | 0.18 | 0.18 | 58 | 1010.4 |
| 20260903175129 | 32 | 182 | 12.9 | 27.4 | 0.00 | 0.18 | 0.18 | 58 | 1010.3 |
| 20260903174628 | 32 | 135 | 9.7 | 17.7 | 0.00 | 0.18 | 0.18 | 59 | 1010.3 |
| 20260903172628 | 31 | 187 | 8.0 | 20.9 | 0.00 | 0.18 | 0.18 | 62 | 1010.4 |
| 20260903172129 | 31 | 195 | 9.7 | 19.3 | 0.00 | 0.18 | 0.18 | 61 | 1010.2 |
| 20260903171127 | 30 | 147 | 8.0 | 19.3 | 0.00 | 0.18 | 0.18 | 64 | 1010.3 |
| 20260903170627 | 30 | 175 | 9.7 | 17.7 | 0.00 | 0.18 | 0.18 | 65 | 1010.3 |
| 20260903170126 | 30 | 225 | 8.0 | 16.1 | 0.00 | 0.18 | 0.18 | 67 | 1010.4 |
| 20260903165626 | 29 | 189 | 8.0 | 16.1 | 0.00 | 0.18 | 0.18 | 68 | 1010.4 |
| 20260903165125 | 28 | 186 | 9.7 | 16.1 | 0.00 | 0.18 | 0.18 | 69 | 1010.5 |
| 20260903164626 | 28 | 123 | 6.4 | 14.5 | 0.00 | 0.18 | 0.18 | 71 | 1010.5 |